EW0122 Weather Reports


time (UTC)temp
F
wind
direction
speed
knots
gust
knots
rain 1hr
in
rain 24hr
in
rain mn
in
humidity
%
barometer
mb
20260506182511 61 231 0.0 4.3 0.08 0.42 0.39 94 1004.8
20260506182015 61 218 0.9 4.3 0.07 0.41 0.38 94 1004.8
20260506181530 61 205 0.0 2.6 0.07 0.40 0.37 94 1004.8
20260506181012 61 208 0.0 2.6 0.07 0.40 0.37 94 1004.8
20260506180510 61 195 0.9 6.1 0.07 0.39 0.36 94 1004.9
20260506180031 61 0 0.9 7.0 0.07 0.39 0.36 94 1004.9
20260506175511 61 183 0.9 7.0 0.07 0.38 0.35 94 1004.9
20260506175011 61 157 1.7 7.0 0.07 0.38 0.35 94 1004.9
20260506174530 61 0 0.9 2.6 0.06 0.37 0.34 94 1004.9
20260506174010 61 208 0.0 1.7 0.06 0.36 0.33 94 1005.0
20260506173513 61 0 0.0 2.6 0.06 0.36 0.33 94 1005.2
20260506173037 61 0 0.0 7.0 0.06 0.35 0.32 94 1005.3
20260506172511 60 217 0.0 7.0 0.06 0.34 0.31 94 1005.2
20260506172010 60 205 1.7 7.0 0.07 0.34 0.31 94 1005.1
20260506171529 60 0 0.9 5.2 0.07 0.33 0.30 94 1005.1
20260506171010 60 165 1.7 5.2 0.07 0.33 0.30 94 1005.0
20260506170516 60 145 0.9 5.2 0.07 0.32 0.29 94 1005.1
20260506170029 60 108 0.9 3.5 0.08 0.32 0.29 94 1005.3
20260506165510 60 127 0.9 3.5 0.07 0.31 0.28 94 1005.3
20260506165010 59 150 0.9 2.6 0.08 0.31 0.28 94 1005.4
20260506164528 59 0 0.0 4.3 0.08 0.30 0.27 94 1005.5
20260506164009 59 165 0.9 4.3 0.08 0.30 0.27 94 1005.4
20260506163511 59 225 0.9 4.3 0.09 0.30 0.27 94 1005.5
20260506163045 58 217 0.9 3.5 0.08 0.29 0.26 94 1005.5
20260506162512 58 136 0.9 3.5 0.08 0.28 0.25 94 1005.6
20260506162017 58 152 0.9 3.5 0.07 0.27 0.24 94 1005.7
20260506161530 57 183 0.0 1.7 0.07 0.26 0.23 93 1005.6
20260506161014 57 0 0.0 0.9 0.07 0.26 0.23 93 1005.6
20260506160512 57 330 0.0 0.9 0.07 0.25 0.22 93 1005.8
20260506160031 57 0 0.0 0.9 0.07 0.24 0.21 93 1006.0
20260506155512 57 0 0.0 0.9 0.07 0.24 0.21 93 1006.0
20260506155014 57 0 0.0 0.9 0.07 0.23 0.20 93 1006.2
20260506154537 57 0 0.0 0.9 0.07 0.22 0.19 93 1006.3
20260506154014 57 330 0.0 0.0 0.07 0.22 0.19 93 1006.4
20260506153516 57 0 0.0 0.0 0.07 0.21 0.18 93 1006.5
20260506153032 57 0 0.0 0.0 0.08 0.21 0.18 93 1006.4
20260506152515 56 0 0.0 0.0 0.08 0.20 0.17 93 1006.4
20260506152016 56 0 0.0 0.0 0.08 0.19 0.16 93 1006.4
20260506151537 56 0 0.0 0.0 0.09 0.19 0.16 93 1006.5
20260506151012 56 0 0.0 0.0 0.09 0.18 0.15 93 1006.4
20260506150518 56 0 0.0 0.0 0.10 0.18 0.15 93 1006.5
20260506150032 56 0 0.0 0.0 0.10 0.17 0.14 93 1006.7
20260506145514 56 0 0.0 0.0 0.10 0.16 0.13 93 1006.7
20260506145013 55 0 0.0 0.0 0.11 0.16 0.13 93 1006.8
20260506144530 55 0 0.0 0.9 0.10 0.15 0.12 93 1006.7
20260506144014 55 0 0.0 0.9 0.09 0.14 0.11 92 1007.0
20260506143513 55 0 0.0 0.0 0.09 0.14 0.11 92 1007.1
20260506143028 55 0 0.0 0.0 0.07 0.12 0.09 92 1007.2
20260506142511 55 0 0.0 0.9 0.08 0.12 0.09 92 1007.3
20260506142013 55 0 0.0 0.9 0.06 0.10 0.07 92 1007.4
20260506141530 55 0 0.0 0.9 0.05 0.09 0.06 92 1007.1
20260506141016 55 0 0.0 0.9 0.05 0.08 0.05 92 1007.2
20260506140514 55 316 0.0 0.9 0.05 0.08 0.05 92 1007.2
20260506140034 55 0 0.0 0.9 0.04 0.07 0.04 92 1007.2
20260506135516 55 0 0.0 0.9 0.03 0.06 0.03 91 1007.2
20260506135020 55 0 0.0 0.9 0.02 0.05 0.02 91 1007.2
20260506134533 55 316 0.0 0.9 0.02 0.05 0.02 91 1007.1
20260506134016 55 314 0.0 0.9 0.02 0.05 0.02 91 1007.0
20260506133515 55 102 0.0 0.9 0.02 0.05 0.02 91 1007.0
20260506133033 55 1 0.0 0.9 0.02 0.05 0.02 91 1006.8
20260506132518 55 0 0.0 0.9 0.01 0.04 0.01 91 1006.8
20260506132011 55 0 0.0 0.9 0.01 0.04 0.01 90 1006.9
20260506131535 55 0 0.0 0.9 0.01 0.04 0.01 90 1006.9
20260506131015 55 314 0.0 0.9 0.00 0.03 0.00 90 1006.9
20260506130517 55 0 0.0 0.9 0.00 0.03 0.00 90 1006.9
20260506130030 55 0 0.0 0.9 0.00 0.03 0.00 90 1007.2
20260506125513 55 0 0.0 0.9 0.00 0.03 0.00 90 1006.9
20260506125011 55 0 0.0 0.9 0.00 0.03 0.00 89 1007.0
20260506124531 55 0 0.0 0.9 0.00 0.03 0.00 89 1007.2
20260506124010 55 0 0.0 0.9 0.00 0.03 0.00 89 1007.0
20260506123518 55 0 0.0 0.0 0.00 0.03 0.00 89 1007.4
20260506123030 55 0 0.0 0.0 0.00 0.03 0.00 89 1007.5
20260506122513 55 0 0.0 0.0 0.00 0.03 0.00 89 1007.6
20260506122013 55 0 0.0 0.9 0.00 0.03 0.00 88 1007.8
20260506121529 55 0 0.0 0.9 0.00 0.03 0.00 88 1007.9
20260506121013 55 0 0.0 0.9 0.00 0.03 0.00 88 1007.7
20260506120511 55 0 0.0 0.9 0.00 0.03 0.00 88 1007.8
20260506120029 55 0 0.0 0.9 0.00 0.03 0.00 88 1007.7
20260506115513 55 297 0.0 0.9 0.00 0.03 0.00 88 1007.8
20260506115013 55 0 0.0 0.9 0.00 0.03 0.00 88 1008.0
20260506114532 55 0 0.0 0.9 0.00 0.03 0.00 88 1007.7
20260506114012 55 140 0.0 0.9 0.00 0.03 0.00 88 1007.4
20260506113512 55 0 0.0 0.9 0.00 0.03 0.00 88 1007.3
20260506113032 55 0 0.0 0.9 0.00 0.03 0.00 88 1007.4
20260506112516 55 139 0.0 0.9 0.00 0.03 0.00 88 1007.2
20260506112013 55 0 0.0 0.9 0.00 0.03 0.00 88 1007.2
20260506111531 55 0 0.0 0.9 0.00 0.03 0.00 88 1007.4
20260506111013 0 0.0 0.0 0.00 0.03 0.00 1007.0
20260506110514 0 0.0 0.0 0.00 0.03 0.00 1007.0
20260506110029 0 0.0 0.0 0.00 0.03 0.00 1007.2
20260506105515 0 0.0 0.0 0.00 0.03 0.00 1007.5
20260506105013 0 0.0 0.0 0.00 0.03 0.00 1007.3
20260506104527 0 0.0 0.0 0.00 0.03 0.00 1007.2
20260506104016 0 0.0 0.0 0.00 0.03 0.00 1007.3
20260506103514 0 0.0 0.0 0.00 0.03 0.00 1007.5
20260506103032 0 0.0 0.0 0.00 0.03 0.00 1007.0
20260506102513 0 0.0 0.0 0.00 0.03 0.00 1007.0
20260506102011 0 0.0 0.0 0.00 0.03 0.00 1006.8
20260506101532 0 0.0 0.0 0.00 0.03 0.00 1007.0
20260506101011 0 0.0 0.0 0.00 0.03 0.00 1007.1
20260506100514 0 0.0 0.0 0.00 0.03 0.00 1007.0
20260506100034 0 0.0 0.0 0.00 0.03 0.00 1006.6
20260506095513 0 0.0 0.0 0.00 0.03 0.00 1006.6
20260506095018 0 0.0 0.0 0.00 0.03 0.00 1006.7
20260506094530 0 0.0 0.0 0.00 0.03 0.00 1006.8
20260506094014 0 0.0 0.0 0.00 0.03 0.00 1006.8
20260506093516 0 0.0 0.0 0.00 0.03 0.00 1006.7
20260506093030 0 0.0 0.0 0.00 0.03 0.00 1006.7
20260506092513 0 0.0 0.0 0.00 0.03 0.00 1006.7
20260506092013 0 0.0 0.0 0.00 0.03 0.00 1006.6
20260506091530 0 0.0 0.0 0.00 0.03 0.00 1006.6
20260506091018 0 0.0 0.0 0.00 0.03 0.00 1006.9
20260506090510 0 0.0 0.0 0.00 0.03 0.00 1007.0
20260506090031 0 0.0 0.0 0.00 0.03 0.00 1006.9
20260506085513 0 0.0 0.0 0.00 0.03 0.00 1006.9
20260506085014 0 0.0 0.0 0.00 0.03 0.00 1006.8
20260506084536 0 0.0 0.0 0.00 0.03 0.00 1006.9
20260506084014 0 0.0 0.0 0.00 0.03 0.00 1007.1
20260506083513 0 0.0 0.0 0.00 0.03 0.00 1007.1
20260506083032 0 0.0 0.0 0.00 0.03 0.00 1007.2
20260506082514 0 0.0 0.0 0.00 0.03 0.00 1007.4
20260506082011 0 0.0 0.0 0.00 0.03 0.00 1007.3
20260506081528 0 0.0 0.0 0.00 0.03 0.00 1007.3
20260506081012 0 0.0 0.0 0.00 0.03 0.00 1007.2
20260506080514 0 0.0 0.0 0.00 0.03 0.00 1007.4
20260506073514 0 0.0 0.0 0.00 0.03 0.00 1007.9
20260506073029 0 0.0 0.0 0.00 0.03 0.00 1007.9
20260506072512 0 0.0 0.0 0.00 0.03 0.00 1007.9
20260506072016 0 0.0 0.0 0.00 0.03 0.00 1007.8
20260506071530 0 0.0 0.0 0.00 0.03 0.00 1007.9
20260506071012 0 0.0 0.0 0.00 0.03 0.00 1007.8
20260506070512 0 0.0 0.0 0.00 0.03 0.00 1007.9
20260506062516 0 0.0 0.0 0.00 0.03 0.00 1008.3
20260506062013 0 0.0 0.0 0.00 0.03 0.00 1008.6
20260506061531 57 0.0 0.0 0.00 0.03 0.00 83 1008.5
20260506061013 57 0 0.0 0.0 0.00 0.03 0.00 83 1008.5
20260506060514 58 0 0.0 0.9 0.00 0.03 0.00 84 1008.4
20260506051013 59 0 0.0 0.9 0.00 0.03 0.00 83 1008.7
20260506050513 59 0 0.0 0.9 0.00 0.03 0.00 84 1008.5
20260506045014 60 0 0.0 0.0 0.00 0.03 0.00 84 1008.7
20260506044532 60 0 0.0 0.0 0.00 0.03 0.00 84 1008.7
20260506044013 60 0 0.0 0.0 0.00 0.03 0.00 83 1008.7
20260506043511 60 0 0.0 0.9 0.00 0.03 0.00 83 1008.6
20260506043028 60 0 0.0 0.9 0.00 0.03 0.00 83 1008.4
20260506042511 60 0 0.0 0.9 0.00 0.03 0.00 83 1008.7
20260506042012 60 0 0.0 0.9 0.00 0.03 0.00 83 1008.9
20260506041549 60 0 0.0 0.9 0.00 0.03 0.00 83 1008.5
20260506041012 61 0 0.0 0.9 0.00 0.03 0.00 83 1008.5
20260506040517 61 0 0.0 1.7 0.00 0.03 0.00 83 1008.3
20260506040033 61 0 0.0 2.6 0.00 0.03 0.00 84 1008.0
20260506035516 61 0 0.0 3.5 0.01 0.03 0.03 84 1008.3
20260506035012 61 243 0.9 4.3 0.02 0.03 0.03 84 1008.4
20260506034543 61 277 0.9 5.2 0.02 0.03 0.03 85 1008.2
20260506034016 61 303 0.9 6.1 0.02 0.03 0.03 85 1008.0
20260506033515 61 250 1.7 7.0 0.02 0.03 0.03 86 1008.0
20260506033029 61 243 1.7 7.0 0.02 0.03 0.03 87 1008.0
20260506032511 61 245 1.7 3.5 0.02 0.03 0.03 88 1007.9
20260506032014 61 311 0.0 1.7 0.02 0.03 0.03 89 1007.8
20260506031529 62 297 0.0 0.9 0.02 0.03 0.03 89 1007.8
20260506031012 62 242 0.0 1.7 0.02 0.03 0.03 89 1007.8
20260506030514 62 0 0.0 1.7 0.02 0.03 0.03 88 1007.8
20260506030028 62 0 0.0 1.7 0.02 0.03 0.03 88 1008.1
20260506025516 62 0 0.0 3.5 0.02 0.02 0.02 87 1008.2
20260506025011 62 0 0.0 3.5 0.01 0.01 0.01 87 1008.2
20260506024533 62 0 0.0 0.9 0.01 0.01 0.01 86 1007.7
20260506024014 62 0 0.0 0.9 0.01 0.01 0.01 86 1007.6
20260506023519 62 0 0.0 0.9 0.01 0.01 0.01 86 1007.7
20260506023030 63 0 0.0 0.9 0.01 0.01 0.01 85 1007.6
20260506022511 63 0 0.0 0.9 0.01 0.01 0.01 84 1007.4
20260506022012 63 304 0.0 0.9 0.01 0.01 0.01 83 1007.7
20260506021529 63 0 0.0 0.9 0.01 0.01 0.01 82 1007.5
20260506021014 63 0 0.0 0.9 0.01 0.01 0.01 81 1007.4
20260506020516 64 0 0.0 0.0 0.01 0.01 0.01 80 1007.5
20260506020028 64 0 0.0 0.0 0.01 0.01 0.01 80 1007.5
20260506015512 64 0 0.0 0.9 0.00 0.00 0.00 79 1007.5
20260506015013 64 0 0.0 0.9 0.00 0.00 0.00 77 1007.5
20260506014529 64 0 0.0 0.9 0.00 0.00 0.00 77 1007.4
20260506014014 64 110 0.0 0.9 0.00 0.00 0.00 77 1007.3
20260506013511 64 0 0.0 0.9 0.00 0.00 0.00 77 1007.1
20260506013041 65 0 0.0 0.9 0.00 0.00 0.00 77 1007.1
20260506012513 65 0 0.0 0.9 0.00 0.00 0.00 77 1007.2
20260506012012 65 0 0.0 0.9 0.00 0.00 0.00 76 1007.1
20260506011531 65 0 0.0 0.9 0.00 0.00 0.00 76 1007.0
20260506011011 65 129 0.0 1.7 0.00 0.00 0.00 75 1006.9
20260506010513 65 132 0.9 1.7 0.00 0.00 0.00 76 1007.0
20260506010032 65 210 0.0 0.0 0.00 0.00 0.00 76 1007.0
20260506005513 65 0 0.0 0.9 0.00 0.00 0.00 76 1006.9
20260506005013 65 0 0.0 2.6 0.00 0.00 0.00 76 1007.1
20260506004527 65 0 0.0 2.6 0.00 0.00 0.00 77 1006.9
20260506004012 65 120 0.0 1.7 0.00 0.00 0.00 77 1006.7
20260506003544 65 0 0.0 1.7 0.00 0.00 0.00 77 1006.7
20260506003030 65 127 0.0 0.9 0.00 0.00 0.00 76 1006.6
20260506002510 65 221 0.0 0.9 0.00 0.00 0.00 75 1006.4
20260506002013 65 127 0.0 0.9 0.00 0.00 0.00 75 1006.4
20260506001530 65 0 0.0 0.9 0.00 0.00 0.00 75 1006.3
20260506001012 65 0 0.0 0.9 0.00 0.00 0.00 74 1006.2
20260506000513 65 0 0.0 0.9 0.00 0.00 0.00 74 1006.2
20260506000029 65 131 0.0 0.9 0.00 0.00 0.00 74 1006.1
20260505235513 66 0 0.0 0.9 0.00 0.00 0.00 74 1006.0
20260505235015 66 131 0.0 0.9 0.00 0.00 0.00 74 1006.2
20260505234529 66 0 0.0 0.9 0.00 0.00 0.00 73 1006.0
20260505234012 66 0 0.0 0.9 0.00 0.00 0.00 72 1006.0
20260505233513 66 133 0.0 0.9 0.00 0.00 0.00 72 1005.8
20260505233030 66 0 0.0 0.9 0.00 0.00 0.00 72 1005.7
20260505232514 66 0 0.0 0.9 0.00 0.00 0.00 72 1005.7
20260505232011 66 0 0.0 0.9 0.00 0.00 0.00 73 1005.5
20260505231531 66 0 0.0 0.9 0.00 0.00 0.00 72 1005.5
20260505231014 66 0 0.0 0.9 0.00 0.00 0.00 71 1005.7
20260505230514 67 0 0.0 0.9 0.00 0.00 0.00 70 1005.7
20260505230041 67 359 0.0 0.9 0.00 0.00 0.00 70 1005.8
20260505225513 67 0 0.0 1.7 0.00 0.00 0.00 69 1005.9
20260505225012 67 0 0.0 1.7 0.00 0.00 0.00 69 1005.8
20260505224530 67 0 0.0 4.3 0.00 0.00 0.00 69 1005.9
20260505224011 67 0 0.0 4.3 0.00 0.00 0.00 69 1005.8
20260505223510 67 210 0.0 4.3 0.00 0.00 0.00 69 1005.7
20260505223037 67 257 0.9 4.3 0.00 0.00 0.00 69 1005.7
20260505222517 67 316 0.9 7.8 0.00 0.00 0.00 69 1005.9
20260505222015 67 305 2.6 7.8 0.00 0.00 0.00 69 1005.9
20260505221528 67 240 3.5 9.6 0.00 0.00 0.00 69 1006.0
20260505221015 67 299 3.5 9.6 0.00 0.00 0.00 70 1005.9
20260505220513 67 250 1.7 8.7 0.00 0.00 0.00 69 1006.1
20260505220047 67 242 1.7 6.1 0.00 0.00 0.00 68 1006.4
20260505215512 68 249 1.7 6.1 0.00 0.00 0.00 66 1006.1
20260505215010 69 301 1.7 6.1 0.00 0.00 0.00 64 1005.8
20260505214535 70 321 0.9 7.8 0.00 0.00 0.00 61 1005.9
20260505214011 70 304 3.5 7.8 0.00 0.00 0.00 57 1005.9
20260505213514 71 330 3.5 12.2 0.00 0.00 0.00 54 1005.9
20260505213033 72 262 2.6 12.2 0.00 0.00 0.00 52 1005.3
20260505212514 73 314 6.1 12.2 0.00 0.00 0.00 50 1004.8
20260505212013 76 335 4.3 13.0 0.00 0.00 0.00 47 1004.7
20260505211531 79 250 5.2 13.0 0.00 0.00 0.00 39 1004.6
20260505211014 81 294 0.9 4.3 0.00 0.00 0.00 25 1003.9
20260505210513 81 0 0.9 6.1 0.00 0.00 0.00 24 1003.5
20260505210030 81 200 0.9 6.1 0.00 0.00 0.00 24 1003.3
20260505205512 82 222 1.7 5.2 0.00 0.00 0.00 24 1003.1
20260505205011 82 205 1.7 6.1 0.00 0.00 0.00 24 1003.1
20260505204530 82 217 2.6 8.7 0.00 0.00 0.00 25 1003.0
20260505204011 82 257 2.6 9.6 0.00 0.00 0.00 25 1003.0
20260505203514 82 201 3.5 9.6 0.00 0.00 0.00 25 1002.9
20260505203029 82 217 2.6 9.6 0.00 0.00 0.00 26 1002.7
20260505202512 82 214 3.5 9.6 0.00 0.00 0.00 26 1002.8
20260505202013 82 236 1.7 12.2 0.00 0.00 0.00 27 1002.9
20260505201528 82 238 3.5 12.2 0.00 0.00 0.00 26 1002.7
20260505201010 82 205 1.7 6.1 0.00 0.00 0.00 28 1002.7
20260505200515 82 232 2.6 7.0 0.00 0.00 0.00 26 1002.8
20260505200036 83 110 2.6 7.0 0.00 0.00 0.00 27 1003.0
20260505195513 83 207 2.6 8.7 0.00 0.00 0.00 26 1003.0
20260505195015 84 207 4.3 8.7 0.00 0.00 0.00 26 1002.9
20260505194530 84 245 3.5 7.8 0.00 0.00 0.00 25 1002.8
20260505194011 84 146 2.6 8.7 0.00 0.00 0.00 27 1003.1
20260505193511 83 157 3.5 8.7 0.00 0.00 0.00 30 1003.0
20260505193034 83 208 1.7 9.6 0.00 0.00 0.00 37 1003.0
20260505192511 83 155 2.6 9.6 0.00 0.00 0.00 36 1003.0
20260505192012 83 232 3.5 9.6 0.00 0.00 0.00 36 1003.0
20260505191537 82 173 1.7 9.6 0.00 0.00 0.00 37 1003.1
20260505191014 82 210 2.6 9.6 0.00 0.00 0.00 37 1003.1
20260505190518 83 213 3.5 9.6 0.00 0.00 0.00 36 1003.1
20260505190030 83 233 0.9 6.1 0.00 0.00 0.00 37 1003.2
20260505185511 83 219 2.6 8.7 0.00 0.00 0.00 36 1003.2
20260505185010 83 215 1.7 8.7 0.00 0.00 0.00 37 1003.4
20260505184530 82 221 2.6 9.6 0.00 0.00 0.00 37 1003.4
20260505184014 82 166 4.3 9.6 0.00 0.00 0.00 39 1003.4
20260505183511 82 214 3.5 8.7 0.00 0.00 0.00 39 1003.4
20260505183034 81 195 1.7 11.3 0.00 0.00 0.00 40 1003.6